FW9748 Weather Reports


time (UTC)temp
F
wind
direction
speed
knots
gust
knots
rain 1hr
in
rain 24hr
in
rain mn
in
humidity
%
barometer
mb
20260505011803 76 230 2.6 2.6 0.00 0.00 0.00 54 1000.3
20260505010304 77 229 3.5 4.3 0.00 0.00 0.00 52 1000.7
20260505005304 77 288 2.6 4.3 0.00 0.00 0.00 51 1000.3
20260505003804 78 248 2.6 4.3 0.00 0.00 0.00 52 1000.3
20260505003306 78 287 3.5 5.2 0.00 0.00 0.00 51 1000.3
20260505002806 78 248 2.6 2.6 0.00 0.00 0.00 52 1000.3
20260505002305 78 233 2.6 2.6 0.00 0.00 0.00 53 1000.0
20260505001306 79 218 2.6 5.2 0.00 0.00 0.00 51 1000.0
20260505000806 79 233 2.6 2.6 0.00 0.00 0.00 51 1000.0
20260505000305 80 240 2.6 4.3 0.00 0.00 0.00 50 1000.0
20260504235805 80 279 2.6 4.3 0.00 0.00 0.00 50 1000.3
20260504235306 80 249 3.5 4.3 0.00 0.00 0.00 49 1000.3
20260504234806 80 275 2.6 4.3 0.00 0.00 0.00 49 1000.3
20260504233805 80 290 1.7 4.3 0.00 0.00 0.00 50 1000.7
20260504233306 80 285 2.6 5.2 0.00 0.00 0.00 49 1000.3
20260504232306 80 258 2.6 4.3 0.00 0.00 0.00 48 1000.7
20260504231806 81 246 3.5 5.2 0.00 0.00 0.00 47 1000.7
20260504231306 80 236 1.7 4.3 0.00 0.00 0.00 47 1000.7
20260504230806 81 229 3.5 5.2 0.00 0.00 0.00 47 1000.7
20260504230305 81 312 1.7 2.6 0.00 0.00 0.00 46 1000.7
20260504225805 81 264 2.6 4.3 0.00 0.00 0.00 46 1000.3
20260504224806 80 238 3.5 5.2 0.00 0.00 0.00 46 1000.3
20260504224306 80 45 2.6 4.3 0.00 0.00 0.00 46 1000.7
20260504223805 81 305 2.6 4.3 0.00 0.00 0.00 45 1000.7
20260504222806 81 224 4.3 7.8 0.00 0.00 0.00 46 1000.7
20260504222305 81 227 4.3 6.1 0.00 0.00 0.00 46 1000.7
20260504221805 81 264 6.1 7.8 0.00 0.00 0.00 45 1000.7
20260504221306 81 233 5.2 6.1 0.00 0.00 0.00 46 1000.7
20260504220305 81 224 2.6 8.7 0.00 0.00 0.00 49 1000.3
20260504215805 81 243 5.2 6.1 0.00 0.00 0.00 48 1000.7
20260504214806 81 228 2.6 6.1 0.00 0.00 0.00 49 1000.7
20260504214306 81 258 6.1 7.8 0.00 0.00 0.00 47 1000.7
20260504213805 81 244 6.1 7.0 0.00 0.00 0.00 47 1000.7
20260504213305 81 246 4.3 7.0 0.00 0.00 0.00 48 1000.7
20260504212805 81 316 2.6 5.2 0.00 0.00 0.00 49 1000.7
20260504212306 81 247 4.3 6.1 0.00 0.00 0.00 48 1000.7
20260504211805 81 293 5.2 7.0 0.00 0.00 0.00 48 1001.0
20260504211305 81 244 4.3 7.0 0.00 0.00 0.00 48 1001.0
20260504210806 81 245 3.5 5.2 0.00 0.00 0.00 48 1000.7
20260504210305 81 258 3.5 6.1 0.00 0.00 0.00 48 1000.7
20260504205305 80 292 4.3 7.0 0.00 0.00 0.00 49 1000.7
20260504204805 80 241 3.5 8.7 0.00 0.00 0.00 51 1000.7
20260504204306 80 227 4.3 7.8 0.00 0.00 0.00 51 1001.0
20260504203305 79 252 4.3 6.1 0.00 0.00 0.00 53 1001.4
20260504202805 79 269 3.5 7.0 0.00 0.00 0.00 53 1001.4
20260504202306 79 228 5.2 6.1 0.00 0.00 0.00 54 1001.4
20260504201305 78 249 3.5 7.8 0.00 0.00 0.00 54 1001.4
20260504200806 78 307 4.3 4.3 0.00 0.00 0.00 54 1001.7
20260504200305 78 113 1.7 5.2 0.00 0.00 0.00 56 1001.7
20260504195806 78 259 4.3 6.1 0.00 0.00 0.00 56 1001.7
20260504195305 77 289 4.3 5.2 0.00 0.00 0.00 57 1001.7
20260504194805 76 295 2.6 7.0 0.00 0.00 0.00 58 1002.4
20260504194306 75 237 5.2 7.0 0.00 0.00 0.00 57 1002.0
20260504193805 74 258 2.6 2.6 0.00 0.00 0.00 60 1001.7
20260504193305 74 237 2.6 4.3 0.00 0.00 0.00 62 1002.4
20260504192806 73 262 1.7 4.3 0.00 0.00 0.00 63 1002.4
20260504192305 73 313 1.7 4.3 0.00 0.00 0.00 63 1002.4
20260504191806 73 241 2.6 2.6 0.00 0.00 0.00 63 1002.4
20260504191305 73 254 1.7 2.6 0.00 0.00 0.00 64 1002.4
20260504190306 70 231 2.6 5.2 0.00 0.00 0.00 66 1002.4
20260504185805 69 241 2.6 4.3 0.00 0.00 0.00 67 1002.4
20260504185306 68 220 3.5 5.2 0.00 0.00 0.00 69 1002.0
20260504184805 67 168 3.5 5.2 0.00 0.00 0.00 69 1002.0
20260504184305 67 186 3.5 6.1 0.00 0.00 0.00 71 1002.0
20260504183805 67 195 2.6 5.2 0.00 0.00 0.00 70 1002.4
20260504183305 67 247 2.6 5.2 0.00 0.00 0.00 69 1003.0
20260504182305 68 181 4.3 5.2 0.00 0.00 0.00 64 1003.0
20260504181805 68 201 1.7 2.6 0.00 0.00 0.00 64 1003.7
20260504181305 68 178 1.7 4.3 0.00 0.00 0.00 64 1003.7
20260504180805 69 204 2.6 4.3 0.00 0.00 0.00 63 1003.7
20260504180305 69 250 2.6 4.3 0.00 0.00 0.00 63 1003.0
20260504175805 69 240 3.5 4.3 0.00 0.00 0.00 64 1003.4
20260504175305 69 233 2.6 5.2 0.00 0.00 0.00 64 1003.4
20260504174806 69 249 2.6 5.2 0.00 0.00 0.00 63 1003.4
20260504174305 69 244 1.7 1.7 0.00 0.00 0.00 63 1003.7
20260504173805 69 263 4.3 4.3 0.00 0.00 0.00 62 1003.4
20260504173305 69 172 2.6 5.2 0.00 0.00 0.00 62 1003.4
20260504172805 69 233 4.3 5.2 0.00 0.00 0.00 63 1003.7
20260504172305 69 232 1.7 2.6 0.00 0.00 0.00 63 1003.7
20260504171806 69 234 1.7 2.6 0.00 0.00 0.00 63 1004.1
20260504171305 68 206 2.6 2.6 0.00 0.00 0.00 65 1003.7
20260504170805 67 212 1.7 2.6 0.00 0.00 0.00 66 1004.1
20260504170305 67 252 2.6 4.3 0.00 0.00 0.00 67 1004.1
20260504160305 65 276 3.5 6.1 0.00 0.00 0.00 68 1004.7
20260504150805 65 225 4.3 6.1 0.00 0.00 0.00 66 1005.1
20260504141305 66 254 2.6 5.2 0.00 0.00 0.00 63 1005.8
20260504140805 66 226 2.6 4.3 0.00 0.00 0.00 63 1005.8
20260504140304 66 247 1.7 4.3 0.00 0.00 0.00 62 1005.8
20260504130305 65 226 2.6 4.3 0.00 0.00 0.00 65 1006.1
20260504120305 61 238 1.7 1.7 0.00 0.00 0.00 71 1007.1
20260504100304 62 238 1.7 1.7 0.00 0.00 0.00 67 1006.8
20260504081804 62 268 0.9 1.7 0.00 0.00 0.00 67 1006.8
20260504081304 62 268 1.7 1.7 0.00 0.00 0.00 65 1006.8
20260504080804 61 268 1.7 1.7 0.00 0.00 0.00 67 1006.8
20260504080304 61 268 1.7 1.7 0.00 0.00 0.00 70 1007.1
20260504070304 62 357 1.7 1.7 0.00 0.00 0.00 67 1006.8
20260504045804 66 258 1.7 1.7 0.00 0.00 0.00 61 1006.4
20260504045304 66 249 1.7 1.7 0.00 0.00 0.00 59 1006.8
20260504044804 66 246 1.7 1.7 0.00 0.00 0.00 60 1006.8
20260504044304 66 245 1.7 1.7 0.00 0.00 0.00 61 1006.8
20260504043304 65 240 1.7 1.7 0.00 0.00 0.00 63 1006.8
20260504042804 66 240 1.7 1.7 0.00 0.00 0.00 62 1006.8
20260504042305 65 246 1.7 2.6 0.00 0.00 0.00 63 1007.1
20260504041304 66 348 0.9 1.7 0.00 0.00 0.00 61 1007.5
20260504040804 66 326 1.7 1.7 0.00 0.00 0.00 61 1007.5
20260504040304 67 288 1.7 1.7 0.00 0.00 0.00 62 1007.5
20260504035305 69 246 1.7 2.6 0.00 0.00 0.00 55 1007.5
20260504034804 69 290 0.9 1.7 0.00 0.00 0.00 56 1007.5
20260504034304 69 270 1.7 2.6 0.00 0.00 0.00 55 1007.5
20260504033804 70 228 2.6 4.3 0.00 0.00 0.00 54 1007.1
20260504033304 70 242 2.6 5.2 0.00 0.00 0.00 54 1007.1
20260504032804 70 218 3.5 6.1 0.00 0.00 0.00 54 1007.5
20260504032304 70 257 4.3 6.1 0.00 0.00 0.00 54 1007.5
20260504031803 70 238 4.3 5.2 0.00 0.00 0.00 54 1007.8
20260504031304 70 218 2.6 4.3 0.00 0.00 0.00 54 1007.5
20260504030803 70 229 1.7 2.6 0.00 0.00 0.00 54 1007.5
20260504030304 70 228 1.7 1.7 0.00 0.00 0.00 53 1007.8
20260504025804 71 275 2.6 4.3 0.00 0.00 0.00 52 1007.5
20260504025304 71 238 2.6 4.3 0.00 0.00 0.00 51 1007.5
20260504024304 72 238 1.7 1.7 0.00 0.00 0.00 49 1007.5
20260504023804 72 280 2.6 2.6 0.00 0.00 0.00 48 1007.5
20260504023304 72 234 1.7 1.7 0.00 0.00 0.00 50 1007.5
20260504022804 72 229 0.9 0.9 0.00 0.00 0.00 50 1007.5
20260504022305 72 229 0.9 1.7 0.00 0.00 0.00 49 1007.5
20260504021803 72 229 1.7 1.7 0.00 0.00 0.00 49 1007.1
20260504021304 72 229 0.9 1.7 0.00 0.00 0.00 50 1007.5
20260504020804 72 234 1.7 1.7 0.00 0.00 0.00 49 1007.5
20260504015304 72 228 1.7 1.7 0.00 0.00 0.00 50 1007.1
20260504014804 72 228 0.9 0.9 0.00 0.00 0.00 50 1007.5
20260504014303 73 228 0.0 0.0 0.00 0.00 0.00 49 1007.5
20260504013304 72 228 0.0 0.9 0.00 0.00 0.00 49 1007.1
20260504012804 72 228 0.0 0.9 0.00 0.00 0.00 50 1007.1
20260504012304 73 223 0.0 0.9 0.00 0.00 0.00 50 1007.1